Home > Weather > Oberpullendorf > Past weeks

Flag for Austria Weather for the Past 2 Weeks in Oberpullendorf, Burgenland, Austria

Now
39 °F

Overcast.


Feels Like: 34 °F
Forecast: 31 / 40 °F
Wind: 7 mph from Southeast

Location: Eisenstadt

Current Time: Feb 12, 2016 at 7:42:18 PM

Latest Report: Feb 12, 2016 at 7:00 PM


Visibility: 9 mi

Pressure: 29.60 "Hg

Humidity: 83%

Dew point: 34 °F

Location of OberpullendorfLocation

Historic Weather in Oberpullendorf — Graph

°F

Oberpullendorf Temperature Yesterday

Maximum temperature yesterday: 46 °F (at 1:00 PM)
Minimum temperature yesterday: 36 °F (at 9:00 PM)
Average temperature yesterday: 42 °F

High & Low Weather Summary for the Past Weeks

 TemperatureHumidityPressure
High60 °F (Feb 1, 1:00 PM)100% (Jan 30, 8:00 PM)30.43 "Hg (Jan 30, 8:00 PM)
Low30 °F (Feb 12, 7:00 AM)42% (Feb 7, 11:00 AM)29.26 "Hg (Feb 10, 10:00 AM)
Average44 °F75%29.96 "Hg
* Reported Jan 28 6:00 PM — Feb 12 6:00 PM, Oberpullendorf, Weather by CustomWeather, © 2016

Note: Actual official high and low records may vary slightly from our data, if they occured in-between our weather recording intervals... More about our weather records

Advertising

Oberpullendorf Weather History for the Previous 24 Hours

 ConditionsComfort  
Time TempWeatherWind HumidityBarometerVisibility
6:00 PM
Fri, Feb 12
40 °FChilly.6 mph79%29.62 "HgN/A
5:00 PM42 °FQuite cool.3 mph69%29.63 "HgN/A
4:00 PM43 °FOvercast.5 mph64%29.65 "Hg12 mi
3:00 PM42 °FQuite cool.1 mph70%29.65 "HgN/A
2:00 PM41 °FQuite cool.1 mph69%29.66 "HgN/A
1:00 PM40 °FQuite cool.2 mph70%29.69 "HgN/A
12:00 PM38 °FChilly.1 mph76%29.71 "HgN/A
11:00 AM36 °FChilly.2 mph79%29.73 "HgN/A
10:00 AM36 °FChilly.1 mph79%29.74 "HgN/A
9:00 AM33 °FChilly.1 mph85%29.74 "HgN/A
8:00 AM31 °FChilly.2 mph88%29.75 "HgN/A
7:00 AM30 °FClear.2 mph89%29.75 "Hg12 mi
5:00 AM32 °FChilly.2 mph83%29.77 "HgN/A
9:00 PM
Thu, Feb 11
36 °FChilly.2 mph71%29.81 "HgN/A
8:00 PM39 °FChilly.3 mph60%29.79 "HgN/A
7:00 PM42 °FClear.6 mph52%29.79 "Hg12 mi
Weather by CustomWeather, © 2016

See weather overviewHow to use our weather pages